sat.trackr.live / text

‹ back to catalog

TURKSAT 5A

NORAD 47306 · 2021-001A

PAYLOAD ACTIVE UNKNOWN

§ Identity

Operator
Country
TURK
Launch date
2021-01-08
Launch site
AFETR
Launch vehicle
Mass (kg)
RCS (m²)

Purposes: comms

External: N2YO · Heavens-Above · Gunter

§ Orbital elements

Epoch: 2026-09-19T20:32:23.286048Z

Period
1,436.09 min
Inclination
0.0157°
Eccentricity
0.0000326
Mean motion
1.00272025 rev/d
Perigee alt
35,785.2 km
Apogee alt
35,787.9 km
Semi-major
42,164.7 km
B*
0.0000e+0
RAAN
129.5812°
Arg perigee
301.1992°
Mean anomaly
267.0183°
Rev number
2,091

§ Raw data

TURKSAT 5A1 47306U 21001A   26262.85582507  .00000150  00000+0  00000+0 0  99962 47306   0.0157 129.5812 0000326 301.1992 267.0183  1.00272025 20917

JSON: /api/v1/satellites/47306 · /tle

For live sub-satellite position, see the globe view (requires WebGL).

§ Visibility from observer

Set your observer location to see the next 7 days of passes ≥ 10°. The values pass through the URL so the page stays shareable.

No JS? Fill the form by hand. The geolocation button needs JavaScript.